This demonstration page uses our WeatherBlox Daily Observations layout. Learn more.

Hourly Observations for December 19, 2017

Temp ( °F °C ) Dew Point ( °F °C ) Humidity (%) Winds ( mph kmh ) Pressure ( in mb ) Visibility ( mi km ) Precip ( " mm )
12:15 am 00:15 Clear 32 0 23 -5.2 68 68 W 7 11 30.06 1018 10 16.09344 0 0
12:35 am 00:35 Clear 30 -0.9 21 -6.2 68 68 Calm 30.06 1018 10 16.09344 0 0
12:55 am 00:55 Clear 33 0.4 22 -5.5 65 65 WNW 9 15 30.03 1017 10 16.09344 0 0
1:15 am 01:15 Clear 32 -0.1 22 -5.5 67 67 WNW 6 9 30.06 1018 10 16.09344 0 0
1:35 am 01:35 Clear 32 0.2 22 -5.3 67 67 W 6 9 30.03 1017 10 16.09344 0 0
1:55 am 01:55 Clear 31 -0.6 22 -5.7 69 69 WNW 8 13 30.06 1018 10 16.09344 0 0
2:15 am 02:15 Clear 31 -0.5 22 -5.5 69 69 W 7 11 30.06 1018 10 16.09344 0 0
2:35 am 02:35 Clear 31 -0.6 22 -5.4 70 70 NW 8 13 30.06 1018 10 16.09344 0 0
2:55 am 02:55 Clear 32 -0.2 24 -4.5 73 73 WNW 14 22 30.06 1018 10 16.09344 0 0
3:15 am 03:15 Clear 33 0.3 24 -4.3 72 72 WNW 8 13 30.09 1019 10 16.09344 0 0
3:35 am 03:35 Clear 32 0 24 -4.4 73 73 WNW 9 15 30.09 1019 10 16.09344 0 0
3:55 am 03:55 Clear 32 0 24 -4.2 74 74 WNW 9 15 30.09 1019 10 16.09344 0 0
4:15 am 04:15 Clear 32 0.2 25 -4.1 73 73 WNW 12 19 30.09 1019 10 16.09344 0 0
4:35 am 04:35 Clear 32 0 24 -4.3 73 73 WNW 9 15 30.09 1019 10 16.09344 0 0
4:55 am 04:55 Clear 32 -0.2 24 -4.3 74 74 WNW 9 15 30.12 1020 10 16.09344 0 0
5:15 am 05:15 Clear 32 -0.2 24 -4.2 75 75 W 9 15 30.12 1020 10 16.09344 0 0
5:35 am 05:35 Clear 32 0.1 25 -4 74 74 WNW 8 13 30.12 1020 10 16.09344 0 0
5:55 am 05:55 Clear 32 0 25 -4 75 75 WNW 7 11 30.15 1021 10 16.09344 0 0
6:15 am 06:15 Clear 32 0 25 -4 75 75 WNW 8 13 30.15 1021 10 16.09344 0 0
6:35 am 06:35 Clear 32 -0.1 25 -4 75 75 WNW 6 9 30.15 1021 10 16.09344 0 0
6:55 am 06:55 Clear 31 -0.7 25 -4 79 79 WNW 6 9 30.15 1021 10 16.09344 0 0
7:15 am 07:15 Clear 33 0.7 27 -2.8 78 78 NW 6 9 30.15 1021 10 16.09344 0 0
7:35 am 07:35 Clear 34 1 28 -2.2 79 79 NNW 6 9 30.18 1022 10 16.09344 0 0
7:55 am 07:55 Clear 33 0.8 28 -2.1 81 81 N 9 15 30.18 1022 10 16.09344 0 0
8:15 am 08:15 Sunny 33 0.5 28 -2.1 83 83 NNW 6 9 30.18 1022 10 16.09344 0 0
8:35 am 08:35 Sunny 34 1 29 -1.6 83 83 N 7 11 30.21 1023 10 16.09344 0 0
8:55 am 08:55 Sunny 34 1 29 -1.4 84 84 NNW 6 9 30.21 1023 10 16.09344 0 0
9:15 am 09:15 Sunny 37 2.8 31 -0.4 80 80 N 10 17 30.18 1022 10 16.09344 0 0
9:35 am 09:35 Sunny 38 3.5 31 -0.4 76 76 NNE 10 17 30.18 1022 10 16.09344 0 0
9:55 am 09:55 Sunny 40 4.3 31 -0.8 70 70 NNE 14 22 30.21 1023 10 16.09344 0 0
10:15 am 10:15 Sunny 41 4.8 29 -1.4 65 65 NNE 13 20 30.21 1023 10 16.09344 0 0
10:35 am 10:35 Sunny 42 5.3 28 -2 60 60 NNE 10 17 30.18 1022 10 16.09344 0 0
10:55 am 10:55 Sunny 42 5.5 26 -3.4 53 53 NNE 14 22 30.18 1022 10 16.09344 0 0
11:15 am 11:15 Sunny 43 6 25 -4.1 49 49 NE 15 24 30.18 1022 10 16.09344 0 0
11:35 am 11:35 Sunny 43 6 23 -5.1 45 45 NNE 13 20 30.18 1022 10 16.09344 0 0
11:55 am 11:55 Sunny 44 6.5 22 -5.5 42 42 NE 12 19 30.18 1022 10 16.09344 0 0
12:15 pm 12:15 Sunny 44 6.9 22 -5.6 41 41 NNE 13 20 30.15 1021 10 16.09344 0 0
12:35 pm 12:35 Sunny 45 7 21 -5.9 40 40 NNE 10 17 30.15 1021 10 16.09344 0 0
12:55 pm 12:55 Sunny 45 7.4 21 -6.2 38 38 NE 13 20 30.15 1021 10 16.09344 0 0
1:15 pm 13:15 Sunny 46 7.5 20 -6.4 37 37 NNE 9 15 30.15 1021 10 16.09344 0 0
1:35 pm 13:35 Sunny 46 7.6 21 -6.3 37 37 NNE 8 13 30.15 1021 10 16.09344 0 0
1:55 pm 13:55 Sunny 46 7.7 20 -6.5 36 36 NE 12 19 30.09 1019 10 16.09344 0 0
2:15 pm 14:15 Sunny 46 8 20 -6.9 34 34 ENE 9 15 30.09 1019 10 16.09344 0 0
2:35 pm 14:35 Sunny 46 8 19 -7.1 34 34 ENE 9 15 30.09 1019 10 16.09344 0 0
2:55 pm 14:55 Sunny 46 7.9 19 -7.5 33 33 NE 12 19 30.09 1019 10 16.09344 0 0
3:15 pm 15:15 Sunny 47 8.1 18 -7.6 32 32 ENE 10 17 30.09 1019 10 16.09344 0 0
3:35 pm 15:35 Sunny 46 7.8 18 -7.8 32 32 ENE 9 15 30.09 1019 10 16.09344 0 0
3:55 pm 15:55 Sunny 46 7.6 17 -8.1 32 32 E 9 15 30.09 1019 10 16.09344 0 0
4:15 pm 16:15 Sunny 45 7.1 17 -8.5 32 32 ENE 9 15 30.06 1018 10 16.09344 0 0
4:35 pm 16:35 Sunny 44 6.5 17 -8.5 34 34 NE 7 11 30.09 1019 10 16.09344 0 0
4:55 pm 16:55 Sunny 41 5.1 17 -8.5 37 37 E 7 11 30.12 1020 10 16.09344 0 0
5:15 pm 17:15 Clear 38 3.3 17 -8.5 42 42 E 7 11 30.15 1021 10 16.09344 0 0
5:35 pm 17:35 Clear 36 2.3 17 -8.2 46 46 ENE 7 11 30.15 1021 10 16.09344 0 0
5:55 pm 17:55 Clear 35 1.7 17 -8.4 47 47 E 6 9 30.15 1021 10 16.09344 0 0
6:15 pm 18:15 Clear 34 1 17 -8.5 50 50 E 7 11 30.18 1022 10 16.09344 0 0
6:35 pm 18:35 Clear 33 0.6 17 -8.6 51 51 E 6 9 30.18 1022 10 16.09344 0 0
6:55 pm 18:55 Clear 32 0 17 -8.6 53 53 E 6 9 30.18 1022 10 16.09344 0 0
7:15 pm 19:15 Clear 31 -0.6 16 -8.7 55 55 E 7 11 30.18 1022 10 16.09344 0 0
7:35 pm 19:35 Clear 31 -0.8 16 -8.9 55 55 ENE 6 9 30.18 1022 10 16.09344 0 0
7:55 pm 19:55 Clear 30 -1.1 16 -8.8 56 56 E 3 6 30.21 1023 10 16.09344 0 0
8:15 pm 20:15 Clear 29 -1.7 16 -9 58 58 E 3 6 30.24 1024 10 16.09344 0 0
8:35 pm 20:35 Clear 27 -2.9 15 -9.3 62 62 E 3 6 30.24 1024 10 16.09344 0 0
8:55 pm 20:55 Clear 27 -2.8 16 -9.1 62 62 Calm 30.21 1023 10 16.09344 0 0
9:15 pm 21:15 Clear 26 -3.3 15 -9.2 64 64 Calm 30.21 1023 10 16.09344 0 0
9:35 pm 21:35 Clear 25 -3.7 15 -9.4 65 65 Calm 30.21 1023 10 16.09344 0 0
9:55 pm 21:55 Clear 26 -3.1 16 -9.1 64 64 Calm 30.21 1023 10 16.09344 0 0
10:15 pm 22:15 Clear 26 -3.6 15 -9.3 65 65 Calm 30.21 1023 10 16.09344 0 0
10:35 pm 22:35 Clear 23 -5 15 -9.5 71 71 Calm 30.24 1024 10 16.09344 0 0
10:55 pm 22:55 Clear 22 -5.6 14 -9.9 72 72 Calm 30.24 1024 10 16.09344 0 0
11:15 pm 23:15 Clear 20 -6.5 14 -10 76 76 Calm 30.24 1024 10 16.09344 0 0
11:35 pm 23:35 Clear 21 -6.1 14 -9.8 75 75 Calm 30.24 1024 10 16.09344 0 0
11:55 pm 23:55 Clear 20 -6.7 14 -10.2 76 76 Calm 30.24 1024 10 16.09344 0 0

Powered by AerisWeather